sat.trackr.live / text

‹ back to catalog

POLAR SCOUT YUKON

NORAD 43808 · 2018-099BC

PAYLOAD ACTIVE UNKNOWN

§ Identity

Operator
Country
US
Launch date
2018-12-03
Launch site
AFWTR
Launch vehicle
Mass (kg)
RCS (m²)

External: N2YO · Heavens-Above · Gunter

§ Orbital elements

Epoch: 2026-09-20T01:50:40.570080Z

Period
93.40 min
Inclination
97.4607°
Eccentricity
0.0003671
Mean motion
15.41698091 rev/d
Perigee alt
438.6 km
Apogee alt
443.6 km
Semi-major
6,819.2 km
B*
4.2352e-4
RAAN
337.7621°
Arg perigee
358.7662°
Mean anomaly
1.3575°
Rev number
42,811

§ Raw data

POLAR SCOUT YUKON1 43808U 18099BC  26263.07685845  .00017807  00000+0  42352-3 0  99932 43808  97.4607 337.7621 0003671 358.7662   1.3575 15.41698091428112

JSON: /api/v1/satellites/43808 · /tle

For live sub-satellite position, see the globe view (requires WebGL).

§ Visibility from observer

Set your observer location to see the next 7 days of passes ≥ 10°. The values pass through the URL so the page stays shareable.

No JS? Fill the form by hand. The geolocation button needs JavaScript.